FENGYUN 1C DEB, 29798

Orbit data source: Space-Track

FENGYUN 1C DEB, 29798 is space debris in SSO originally from a launch on Mon, 10 May 1999 UTC launched from the Taiyaun Space Center, China (TSC). Fengyun 1C debris stems from the Chinese weather satellite Fengyun-1C, which was intentionally destroyed by a Chinese anti-satellite missile in 2007. This event dramatically increased the amount of space debris, with thousands of trackable fragments posing hazards to satellites and human spaceflight. The Fengyun 1C debris cloud has become a focal point in discussions about space sustainability and the need for international regulations to prevent the creation of new debris.

Loading next visibility...
Identifier
29798, 1999-025CQ
Orbit
SSO
Country
Flag of CNCN / PRC
Related business
Manufacturer
Unknown
Mission
Spacecraft
Bus & Motor
Unknown
Mass
Unknown
Launch date (UTC)
1999-05-10 (27 years ago)
Launch vehicle
Unknown
Launch site
Taiyaun Space Center, China (TSC)
Object type
Payload
Rocket body
Debris
Shape & HBR
Unknown shape, 0.1 m
Radar Cross Section
Small (<0.1 m²)

Expand to show TLE details & history
Last TLE update: 20 hours ago

TLE from 20 hours ago
0 FENGYUN 1C DEB
1 29798U 99025CQ  26134.64672211  .00001572  00000-0  10434-2 0  9994
2 29798  99.2828 205.8950 0107401 214.7929 303.2246 14.00181196980649
Epoch: 2026-05-14T15:31Z
TLE epoch observation values (Epoch: 2026-05-14T15:31:16.790Z)
Latitude
22.71963°
Longitude
-75.41087°
Altitude
853.679 km
Speed
7.449 km/s
True Right ascension
01h 59m 11s
True Declination
22° 35' 56"
Sunlit
Object was in daylight at epoch
Visualization orbit readout
Latitude
Unknown
Longitude
Unknown
Altitude
Unknown
Speed
Unknown
Apparent Right ascension
Unknown
Apparent Declination
Unknown
Sunlit
N/A
Visualization observer readout
Local Sidereal Time
20:05:52
Azimuth
Unknown
Elevation
Unknown
Doppler factor
Unknown
Orbital elements
Apogee altitude
968.445 km
Perigee altitude
812.316 km
Semi-major axis
7,268.517 km
Eccentricity
0.01074
Inclination
99.2828°
RAAN
205.895°
Arg. of periapsis
214.7929°
True anomaly
302.18749°
Mean anomaly
303.2246°
Eccentric anomaly
302.70681°
Mean motion
3.50247 °/min
Orbital period
102.78 mins
BSTAR
0.0010434
Loading maneuver chart data...
Computing Atmospheric mass density...
Loading historical data...
Loading historical data...
Loading historical data...
Loading historical data...
Loading historical data...
Loading historical data...
Loading historical data...

Documentation

Showing up to 5 results
|